| time (UTC) | temp F | wind direction | speed knots | gust knots | rain 1hr in | rain 24hr in | rain mn in | humidity % | barometer mb |
| 20260509094553 | 49 | 340 | 2.6 | 3.5 | 0.00 | 0.00 | 0.00 | 88 | 1021.6 |
| 20260509093049 | 49 | 352 | 2.6 | 4.3 | 0.00 | 0.00 | 0.00 | 87 | 1021.7 |
| 20260509091557 | 50 | 352 | 2.6 | 4.3 | 0.00 | 0.00 | 0.00 | 87 | 1021.8 |
| 20260509090101 | 50 | 348 | 2.6 | 4.3 | 0.00 | 0.00 | 0.00 | 86 | 1021.9 |
| 20260509084550 | 50 | 348 | 3.5 | 7.0 | 0.00 | 0.00 | 0.00 | 86 | 1022.0 |
| 20260509083054 | 50 | 352 | 2.6 | 4.3 | 0.00 | 0.00 | 0.00 | 85 | 1022.2 |
| 20260509081550 | 51 | 349 | 2.6 | 5.2 | 0.00 | 0.00 | 0.00 | 84 | 1022.4 |
| 20260509080106 | 51 | 340 | 2.6 | 5.2 | 0.00 | 0.00 | 0.00 | 83 | 1022.4 |
| 20260509074551 | 51 | 352 | 2.6 | 5.2 | 0.00 | 0.00 | 0.00 | 82 | 1022.5 |
| 20260509073102 | 52 | 341 | 2.6 | 5.2 | 0.00 | 0.00 | 0.00 | 81 | 1022.5 |
| 20260509071551 | 52 | 351 | 3.5 | 5.2 | 0.00 | 0.00 | 0.00 | 79 | 1022.5 |
| 20260509070059 | 53 | 345 | 3.5 | 5.2 | 0.00 | 0.00 | 0.00 | 79 | 1022.5 |
| 20260509064552 | 53 | 337 | 3.5 | 5.2 | 0.00 | 0.00 | 0.00 | 79 | 1022.4 |
| 20260509063107 | 53 | 337 | 3.5 | 5.2 | 0.00 | 0.00 | 0.00 | 78 | 1022.4 |
| 20260509061600 | 53 | 338 | 2.6 | 4.3 | 0.00 | 0.00 | 0.00 | 78 | 1022.3 |
| 20260509060054 | 54 | 31 | 4.3 | 8.7 | 0.00 | 0.00 | 0.00 | 77 | 1022.3 |
| 20260509054555 | 54 | 17 | 2.6 | 7.0 | 0.00 | 0.00 | 0.00 | 76 | 1022.3 |
| 20260509053050 | 55 | 346 | 3.5 | 10.4 | 0.00 | 0.00 | 0.00 | 75 | 1022.3 |
| 20260509051552 | 56 | 9 | 3.5 | 7.8 | 0.00 | 0.00 | 0.00 | 73 | 1022.3 |
| 20260509050100 | 56 | 352 | 3.5 | 7.0 | 0.00 | 0.00 | 0.00 | 72 | 1022.2 |
| 20260509044550 | 57 | 19 | 3.5 | 7.0 | 0.00 | 0.00 | 0.00 | 71 | 1022.1 |
| 20260509043101 | 57 | 352 | 2.6 | 7.8 | 0.00 | 0.00 | 0.00 | 70 | 1021.9 |
| 20260509041553 | 58 | 5 | 2.6 | 5.2 | 0.00 | 0.00 | 0.00 | 68 | 1021.8 |
| 20260509040051 | 58 | 348 | 1.7 | 4.3 | 0.00 | 0.00 | 0.00 | 67 | 1021.8 |
| 20260509034558 | 58 | 338 | 1.7 | 4.3 | 0.00 | 0.00 | 0.00 | 66 | 1021.8 |
| 20260509033110 | 59 | 352 | 1.7 | 5.2 | 0.00 | 0.00 | 0.00 | 66 | 1021.7 |
| 20260509031558 | 59 | 352 | 1.7 | 4.3 | 0.00 | 0.00 | 0.00 | 64 | 1021.5 |
| 20260509030056 | 59 | 333 | 2.6 | 7.0 | 0.00 | 0.00 | 0.00 | 63 | 1021.3 |
| 20260509024601 | 60 | 343 | 1.7 | 3.5 | 0.00 | 0.00 | 0.00 | 62 | 1021.4 |
| 20260509023054 | 61 | 15 | 0.9 | 1.7 | 0.00 | 0.00 | 0.00 | 59 | 1021.3 |
| 20260509021558 | 61 | 28 | 0.9 | 1.7 | 0.00 | 0.00 | 0.00 | 59 | 1021.3 |
| 20260509020057 | 60 | 0 | 0.0 | 0.0 | 0.00 | 0.00 | 0.00 | 59 | 1021.4 |
| 20260509014553 | 60 | 0 | 0.0 | 1.7 | 0.00 | 0.00 | 0.00 | 60 | 1021.4 |
| 20260509013055 | 61 | 340 | 0.0 | 1.7 | 0.00 | 0.00 | 0.00 | 59 | 1021.3 |
| 20260509011601 | 61 | 352 | 0.9 | 2.6 | 0.00 | 0.00 | 0.00 | 61 | 1021.4 |
| 20260509010054 | 62 | 13 | 1.7 | 3.5 | 0.00 | 0.00 | 0.00 | 59 | 1021.5 |
| 20260509004559 | 61 | 80 | 0.0 | 6.1 | 0.00 | 0.00 | 0.00 | 58 | 1021.6 |
| 20260509003058 | 62 | 27 | 0.9 | 4.3 | 0.00 | 0.00 | 0.00 | 58 | 1021.6 |
| 20260509001555 | 63 | 360 | 2.6 | 4.3 | 0.00 | 0.00 | 0.00 | 58 | 1021.7 |
| 20260509000054 | 64 | 57 | 1.7 | 3.5 | 0.00 | 0.00 | 0.00 | 55 | 1021.7 |
| 20260508234557 | 63 | 242 | 1.7 | 5.2 | 0.00 | 0.00 | 0.00 | 54 | 1021.7 |
| 20260508233054 | 63 | 186 | 1.7 | 6.1 | 0.00 | 0.00 | 0.00 | 56 | 1021.7 |
| 20260508231555 | 63 | 244 | 3.5 | 8.7 | 0.00 | 0.00 | 0.00 | 56 | 1021.5 |
| 20260508230055 | 62 | 182 | 2.6 | 6.1 | 0.00 | 0.00 | 0.00 | 56 | 1021.7 |
| 20260508224609 | 62 | 194 | 2.6 | 10.4 | 0.00 | 0.00 | 0.00 | 57 | 1021.7 |
| 20260508223052 | 62 | 17 | 2.6 | 7.0 | 0.00 | 0.00 | 0.00 | 55 | 1021.7 |
| 20260508221608 | 63 | 182 | 0.9 | 7.8 | 0.00 | 0.00 | 0.00 | 55 | 1021.8 |
| 20260508220049 | 61 | 212 | 2.6 | 7.0 | 0.00 | 0.00 | 0.00 | 58 | 1021.8 |
| 20260508214550 | 62 | 119 | 2.6 | 4.3 | 0.00 | 0.00 | 0.00 | 57 | 1021.7 |
| 20260508213049 | 60 | 257 | 3.5 | 8.7 | 0.00 | 0.00 | 0.00 | 56 | 1021.9 |
| 20260508211556 | 60 | 126 | 3.5 | 7.8 | 0.00 | 0.00 | 0.00 | 62 | 1021.8 |
| 20260508210056 | 59 | 264 | 4.3 | 9.6 | 0.00 | 0.00 | 0.00 | 58 | 1021.8 |
| 20260508204551 | 58 | 244 | 0.9 | 9.6 | 0.00 | 0.00 | 0.00 | 62 | 1021.8 |
| 20260508203059 | 58 | 113 | 2.6 | 7.0 | 0.00 | 0.00 | 0.00 | 64 | 1021.8 |
| 20260508201553 | 58 | 182 | 5.2 | 9.6 | 0.00 | 0.00 | 0.00 | 59 | 1021.9 |
| 20260508200105 | 58 | 184 | 5.2 | 8.7 | 0.00 | 0.00 | 0.00 | 59 | 1022.1 |
| 20260508194551 | 58 | 146 | 2.6 | 11.3 | 0.00 | 0.00 | 0.00 | 60 | 1022.0 |
| 20260508193102 | 57 | 193 | 2.6 | 7.0 | 0.00 | 0.00 | 0.00 | 63 | 1022.0 |
| 20260508191551 | 57 | 186 | 5.2 | 12.2 | 0.00 | 0.00 | 0.00 | 62 | 1022.0 |
| 20260508190053 | 56 | 49 | 2.6 | 12.2 | 0.00 | 0.00 | 0.00 | 65 | 1022.1 |
| 20260508184552 | 55 | 189 | 4.3 | 7.8 | 0.00 | 0.00 | 0.00 | 66 | 1022.1 |
| 20260508183106 | 54 | 290 | 4.3 | 11.3 | 0.00 | 0.00 | 0.00 | 69 | 1022.1 |
| 20260508181612 | 56 | 198 | 4.3 | 8.7 | 0.00 | 0.00 | 0.00 | 68 | 1021.9 |
| 20260508180054 | 54 | 225 | 2.6 | 8.7 | 0.00 | 0.00 | 0.00 | 70 | 1021.7 |
| 20260508174550 | 55 | 192 | 4.3 | 9.6 | 0.00 | 0.00 | 0.00 | 71 | 1021.7 |
| 20260508173056 | 52 | 190 | 2.6 | 8.7 | 0.00 | 0.00 | 0.00 | 75 | 1021.5 |
| 20260508171554 | 52 | 229 | 0.9 | 6.1 | 0.00 | 0.00 | 0.00 | 75 | 1021.3 |
| 20260508170050 | 52 | 184 | 2.6 | 8.7 | 0.00 | 0.00 | 0.00 | 76 | 1021.1 |
| 20260508164549 | 50 | 165 | 2.6 | 6.1 | 0.00 | 0.00 | 0.00 | 78 | 1020.7 |
| 20260508163050 | 50 | 246 | 2.6 | 5.2 | 0.00 | 0.00 | 0.00 | 78 | 1020.7 |
| 20260508161546 | 50 | 195 | 4.3 | 8.7 | 0.00 | 0.00 | 0.00 | 79 | 1020.4 |
| 20260508160053 | 49 | 149 | 4.3 | 8.7 | 0.00 | 0.00 | 0.00 | 79 | 1020.5 |
| 20260508154552 | 49 | 176 | 3.5 | 7.0 | 0.00 | 0.00 | 0.00 | 80 | 1020.4 |
| 20260508153051 | 48 | 107 | 1.7 | 7.8 | 0.00 | 0.00 | 0.00 | 82 | 1020.4 |
| 20260508151550 | 47 | 152 | 3.5 | 7.8 | 0.00 | 0.00 | 0.00 | 83 | 1020.6 |
| 20260508150122 | 47 | 148 | 1.7 | 5.2 | 0.00 | 0.00 | 0.00 | 83 | 1020.7 |
| 20260508144600 | 47 | 192 | 4.3 | 8.7 | 0.00 | 0.00 | 0.00 | 83 | 1020.7 |
| 20260508143054 | 47 | 194 | 4.3 | 7.0 | 0.00 | 0.00 | 0.00 | 84 | 1020.9 |
| 20260508141602 | 47 | 182 | 3.5 | 7.0 | 0.00 | 0.00 | 0.00 | 84 | 1020.5 |
| 20260508140059 | 46 | 192 | 2.6 | 6.1 | 0.00 | 0.00 | 0.00 | 84 | 1020.2 |
| 20260508134551 | 46 | 191 | 3.5 | 6.1 | 0.00 | 0.00 | 0.00 | 83 | 1019.9 |
| 20260508133048 | 46 | 190 | 1.7 | 3.5 | 0.00 | 0.00 | 0.00 | 81 | 1019.5 |
| 20260508131557 | 46 | 204 | 1.7 | 3.5 | 0.00 | 0.00 | 0.00 | 80 | 1019.3 |
| 20260508130050 | 46 | 221 | 2.6 | 4.3 | 0.00 | 0.00 | 0.00 | 80 | 1018.8 |
| 20260508124600 | 47 | 191 | 0.9 | 1.7 | 0.00 | 0.00 | 0.00 | 80 | 1018.7 |
| 20260508123056 | 48 | 182 | 0.9 | 4.3 | 0.00 | 0.00 | 0.00 | 77 | 1018.5 |
| 20260508121552 | 48 | 186 | 0.9 | 2.6 | 0.00 | 0.00 | 0.00 | 78 | 1018.5 |
| 20260508120059 | 48 | 219 | 0.9 | 2.6 | 0.00 | 0.00 | 0.00 | 78 | 1018.5 |
| 20260508114553 | 48 | 200 | 0.9 | 3.5 | 0.00 | 0.00 | 0.00 | 78 | 1018.3 |
| 20260508113124 | 48 | 209 | 1.7 | 3.5 | 0.00 | 0.00 | 0.00 | 79 | 1018.2 |
| 20260508111558 | 49 | 204 | 1.7 | 3.5 | 0.00 | 0.00 | 0.00 | 78 | 1018.0 |
| 20260508110053 | 49 | 193 | 1.7 | 4.3 | 0.00 | 0.00 | 0.00 | 77 | 1017.9 |
| 20260508104602 | 50 | 227 | 2.6 | 4.3 | 0.00 | 0.00 | 0.00 | 77 | 1017.6 |
| 20260508103105 | 50 | 196 | 3.5 | 5.2 | 0.00 | 0.00 | 0.00 | 78 | 1017.6 |
| 20260508101559 | 51 | 237 | 3.5 | 6.1 | 0.00 | 0.00 | 0.00 | 76 | 1017.5 |
| 20260508100052 | 50 | 223 | 2.6 | 3.5 | 0.00 | 0.00 | 0.00 | 77 | 1017.3 |